This is the latest recevied weather packets stored in our database for station/object KA1BMF-13. If no packets are shown the sender has not sent any weather packets the latest 10 day(s).
| Time | Temp. | Humidity | Pressure | Rain* | Wind** | Luminosity | Snow |
|---|---|---|---|---|---|---|---|
| 1788360024 | 20.56° C | 76% | 1020.9 hPa | 0 mm | - | 461 W/m² | - |
| 1788359425 | 20.56° C | 78% | 1021 hPa | 0 mm | - | 460 W/m² | - |
| 1788358825 | 20° C | 79% | 1021 hPa | 0 mm | - | 359 W/m² | - |
| 1788358225 | 20° C | 83% | 1021 hPa | 0 mm | - | 292 W/m² | - |
| 1788357625 | 19.44° C | 82% | 1021 hPa | 0 mm | - | 327 W/m² | - |
| 1788357026 | 19.44° C | 84% | 1020.8 hPa | 0 mm | - | 292 W/m² | - |
| 1788356426 | 19.44° C | 85% | 1020.8 hPa | 0 mm | - | 312 W/m² | - |
| 1788355826 | 18.89° C | 86% | 1020.7 hPa | 0 mm | - | 255 W/m² | - |
| 1788355227 | 18.33° C | 90% | 1020.6 hPa | 0 mm | - | 335 W/m² | - |
| 1788354632 | 18.33° C | 93% | 1020.5 hPa | 0 mm | - | 260 W/m² | - |
| 1788354026 | 17.78° C | 94% | 1020.3 hPa | 0 mm | - | 147 W/m² | - |
| 1788353427 | 17.78° C | 95% | 1020.3 hPa | 0 mm | - | 139 W/m² | - |
| 1788352827 | 17.22° C | 96% | 1020.3 hPa | 0 mm | - | 158 W/m² | - |
| 1788352227 | 17.22° C | 97% | 1020.5 hPa | 0 mm | - | 108 W/m² | - |
| 1788351632 | 17.22° C | 97% | 1020.7 hPa | 0 mm | - | 86 W/m² | - |
| 1788351027 | 16.67° C | 98% | 1020.7 hPa | 0 mm | - | 68 W/m² | - |
| 1788350428 | 16.67° C | 98% | 1020.7 hPa | 0 mm | - | 49 W/m² | - |
| 1788349828 | 16.67° C | 98% | 1020.8 hPa | 0 mm | - | 54 W/m² | - |
| 1788349229 | 16.67° C | 99% | 1020.8 hPa | 0 mm | - | 47 W/m² | - |
| 1788348628 | 16.67° C | 99% | 1020.8 hPa | 0 mm | - | 47 W/m² | - |
| 1788348028 | 16.67° C | 99% | 1020.8 hPa | 0 mm | - | 27 W/m² | - |
| 1788347429 | 16.67° C | 99% | 1020.6 hPa | 0 mm | - | 17 W/m² | - |
| 1788346829 | 16.67° C | 99% | 1020.7 hPa | 0 mm | - | 11 W/m² | - |
| 1788346229 | 16.67° C | 99% | 1020.5 hPa | 0 mm | - | 8 W/m² | - |
| 1788345630 | 16.67° C | 99% | 1020.4 hPa | 0 mm | - | 7 W/m² | - |
* Rain latest hour (hover to see other rain measurements)
** Current wind speed in m/s (hover to see current wind gust speed)